Starlink 2094

operational
NORAD ID: 47375 Int'l Des: 2021-005 Owner: SPXS Country: US Constellation: starlink
LEOCIRCULARSTARLINK_TYPE

关于 Starlink 2094

正在加载描述...

实时位置

正在加载3D地球...

即将过境

高度历史

Altitude vs Time

uPlot chart will show altitude changes over time

两行轨道根数

1 47375U 21005AC 26062.34900159 .00001690 00000-0 13228-3 0 9996
2 47375 53.0547 90.0819 0001473 92.6033 267.5125 15.06407993282089
Epoch: Mar 3, 2026 • Age: 21 hours

当前状态

高度 548.7 km
速度 7.59 km/s
星下点 32.60°N, 4.94°W
发射日期 Jan 20, 2021
运行时间 5.1 years
类型 internet

技术详情

分类 Payload
质量 260.00 kg
干质量 248.00 kg
总质量 260.00 kg
长度 0.20 m
直径 2.80 m
跨度 9.00 m
形状 Box + pan
制造商 SPXS
平台类型 Starlink
阶段状态 In Orbit
所有者/国家 SPXS/US

大型星座

Loading constellations...